Alliance, NE

7:51 PM MST on February 19, 2018 (GMT -0700)
Alliance Municipal

Weather History for KAIA - July, 2014

Change the Weather History Date:

Thursday, July 17, 2014

  Actual Average Record
Temperature  
Mean Temperature 64 °F 73 °F  
Max Temperature 79 °F 89 °F 106 °F (2003)
Min Temperature 49 °F 57 °F 46 °F (1906)
Degree Days  
Heating Degree Days 1 0  
Month to date heating degree days 27 5  
Since 1 June heating degree days 126 98  
Since 1 July heating degree days 27 5  
Cooling Degree Days 0 8  
Month to date cooling degree days 86 117  
Year to date cooling degree days 136 215  
Since 1 June cooling degree days 122 205  
Growing Degree Days 13 (Base 50)    
Moisture  
Dew Point 53 °F    
Average Humidity 70    
Maximum Humidity 100    
Minimum Humidity 40    
Precipitation  
Precipitation 0.00 in 0.09 in 1.50 in (1913)
Month to date precipitation 0.12 1.34  
Year to date precipitation 12.30 9.73  
Sea Level Pressure  
Sea Level Pressure 30.02 in    
Wind  
Wind Speed 9 mph (South)    
Max Wind Speed 16 mph    
Max Gust Speed 21 mph    
Visibility 8 miles    
Events Fog    
T = Trace of Precipitation, MM = Missing Value Source: NWS Daily Summary

Daily Weather History Graph

Daily Weather History Graph

Search for Another Location

Airport or City:

Trip Planner

Search our weather history database for the weather conditions in past years. The results will help you decide how hot, cold, wet, or windy it might be!

Date:

Astronomy

Jul. 17, 2014 Rise Set
Actual Time 5:30 AM MDT 8:23 PM MDT
Civil Twilight 4:57 AM MDT 8:56 PM MDT
Nautical Twilight 4:15 AM MDT 9:38 PM MDT
Astronomical Twilight 3:26 AM MDT 10:27 PM MDT
Moon 11:37 PM MDT (7/17) 11:51 AM MDT (7/17)
Length of Visible Light 15h 59m
Length of Day
14h 53m
Waning Gibbous, 65% of the Moon is Illuminated
Jul 17
Waning Gibbous
Jul 18
Last Quarter
Jul 26
New
Aug 3
First Quarter
Aug 10
Full

Hourly Weather History & Observations

Time (MDT) Temp. Dew Point Humidity Pressure Visibility Wind Dir Wind Speed Gust Speed Precip Events Conditions
12:11 AM 52.0 °F 51.1 °F 97% 30.10 in 1.5 mi Calm Calm - N/A   Clear
12:13 AM 52.0 °F 51.1 °F 97% 30.10 in 1.0 mi Calm Calm - N/A   Clear
12:21 AM 51.1 °F 51.1 °F 100% 30.11 in 1.8 mi Calm Calm - N/A   Clear
12:26 AM 51.1 °F 50.0 °F 96% 30.10 in 0.5 mi Calm Calm - N/A Fog Fog
12:53 AM 48.9 °F 48.0 °F 97% 30.04 in 0.2 mi Calm Calm - N/A Fog Fog
1:35 AM 51.1 °F 50.0 °F 96% 30.10 in 1.0 mi SSE 3.5 mph - N/A   Overcast
1:38 AM 51.1 °F 50.0 °F 96% 30.10 in 1.5 mi South 4.6 mph - N/A   Overcast
1:41 AM 51.1 °F 50.0 °F 96% 30.10 in 3.0 mi South 5.8 mph - N/A   Overcast
1:53 AM 51.1 °F 51.1 °F 100% 30.04 in 9.0 mi South 6.9 mph - N/A   Overcast
2:25 AM 53.1 °F 52.0 °F 96% 30.11 in 10.0 mi South 5.8 mph - N/A   Overcast
2:53 AM 54.0 °F 53.1 °F 97% 30.04 in 10.0 mi South 5.8 mph - N/A   Overcast
3:53 AM 55.0 °F 54.0 °F 96% 30.02 in 10.0 mi South 3.5 mph - N/A   Overcast
4:53 AM 52.0 °F 51.1 °F 97% 30.03 in 9.0 mi South 5.8 mph - N/A   Scattered Clouds
5:19 AM 52.0 °F 51.1 °F 97% 30.09 in 9.0 mi South 5.8 mph - N/A   Mostly Cloudy
5:35 AM 51.1 °F 50.0 °F 96% 30.08 in 5.0 mi South 8.1 mph - N/A   Scattered Clouds
5:53 AM 51.1 °F 51.1 °F 100% 30.03 in 5.0 mi South 6.9 mph - N/A   Clear
6:53 AM 55.9 °F 55.0 °F 97% 30.03 in 9.0 mi SSW 4.6 mph - N/A   Partly Cloudy
7:17 AM 57.0 °F 55.9 °F 96% 30.09 in 10.0 mi SSW 8.1 mph - N/A   Mostly Cloudy
7:24 AM 57.9 °F 55.9 °F 93% 30.09 in 10.0 mi SSW 8.1 mph - N/A   Scattered Clouds
7:53 AM 57.2 °F 55.4 °F 94% 30.10 in 10.0 mi SSW 8.1 mph - N/A   Partly Cloudy
8:07 AM 59.0 °F 55.4 °F 88% 30.10 in 10.0 mi WSW 10.4 mph - N/A   Mostly Cloudy
8:53 AM 61.0 °F 54.0 °F 78% 30.02 in 10.0 mi WSW 8.1 mph - N/A   Overcast
9:46 AM 64.9 °F 55.0 °F 70% 30.09 in 10.0 mi WSW 8.1 mph - N/A   Mostly Cloudy
9:53 AM 64.9 °F 55.0 °F 70% 30.01 in 10.0 mi WSW 8.1 mph - N/A   Mostly Cloudy
10:53 AM 68.0 °F 54.0 °F 61% 30.01 in 10.0 mi WSW 8.1 mph - N/A   Clear
11:53 AM 72.0 °F 54.0 °F 53% 29.99 in 10.0 mi SSW 10.4 mph - N/A   Scattered Clouds
12:53 PM 73.9 °F 54.0 °F 50% 29.99 in 10.0 mi South 9.2 mph - N/A   Clear
1:53 PM 77.0 °F 54.0 °F 45% 29.96 in 10.0 mi SSW 8.1 mph 18.4 mph N/A   Partly Cloudy
2:53 PM 78.1 °F 53.1 °F 42% 29.94 in 10.0 mi SSW 9.2 mph 18.4 mph N/A   Scattered Clouds
3:53 PM 77.0 °F 53.1 °F 43% 29.93 in 10.0 mi SSW 12.7 mph - N/A   Clear
4:53 PM 77.0 °F 52.0 °F 42% 29.91 in 10.0 mi South 9.2 mph - N/A   Clear
5:53 PM 75.9 °F 51.1 °F 42% 29.90 in 10.0 mi South 13.8 mph - N/A   Clear
6:53 PM 73.9 °F 50.0 °F 43% 29.89 in 10.0 mi South 10.4 mph - N/A   Clear
7:53 PM 68.0 °F 53.1 °F 59% 29.90 in 10.0 mi South 6.9 mph - N/A   Clear
8:53 PM 61.0 °F 54.0 °F 78% 29.91 in 10.0 mi SSE 9.2 mph - N/A   Clear
9:53 PM 62.1 °F 55.9 °F 80% 29.93 in 10.0 mi SSE 11.5 mph - N/A   Clear
10:53 PM 60.1 °F 55.9 °F 86% 29.91 in 10.0 mi SSE 11.5 mph - N/A   Clear
11:53 PM 59.0 °F 55.4 °F 88% 30.00 in 10.0 mi SSE 15.0 mph - N/A   Clear